Champaign, IL

2:13 PM CDT on July 25, 2017 (GMT -0500)
Univ Of Illinois-Willard

Weather History for KCMI - October, 2010

Change the Weather History Date:

Tuesday, October 5, 2010

  Actual Average Record
Temperature  
Mean Temperature 52 °F 58 °F  
Max Temperature 69 °F 70 °F 90 °F (2007)
Min Temperature 35 °F 45 °F 30 °F (1999)
Degree Days  
Heating Degree Days 13 9  
Month to date heating degree days 60 40  
Since 1 July heating degree days 102 132  
Cooling Degree Days 0 1  
Month to date cooling degree days 0 6  
Year to date cooling degree days 1309 931  
Growing Degree Days 2 (Base 50)    
Moisture  
Dew Point 35 °F    
Average Humidity 58    
Maximum Humidity 92    
Minimum Humidity 23    
Precipitation  
Precipitation 0.00 in 0.10 in 1.16 in (2013)
Month to date precipitation 0.24 0.50  
Year to date precipitation 27.37 31.06  
Sea Level Pressure  
Sea Level Pressure 30.36 in    
Wind  
Wind Speed 5 mph (NW)    
Max Wind Speed 13 mph    
Max Gust Speed 18 mph    
Visibility 10 miles    
Events      
T = Trace of Precipitation, MM = Missing Value Source: NWS Daily Summary

Daily Weather History Graph

Daily Weather History Graph

Search for Another Location

Airport or City:

Trip Planner

Search our weather history database for the weather conditions in past years. The results will help you decide how hot, cold, wet, or windy it might be!

Date:

Astronomy

Oct. 05, 2010 Rise Set
Actual Time 6:53 AM CDT 6:28 PM CDT
Civil Twilight 6:26 AM CDT 6:56 PM CDT
Nautical Twilight 5:54 AM CDT 7:27 PM CDT
Astronomical Twilight 5:23 AM CDT 7:58 PM CDT
Moon 4:15 AM CDT (10/5) 4:59 PM CDT (10/5)
Length of Visible Light 12h 29m
Length of Day
11h 35m
Waning Crescent, 6% of the Moon is Illuminated
Oct 5
Waning Crescent
Oct 7
New
Oct 14
First Quarter
Oct 22
Full
Oct 30
Last Quarter

Hourly Weather History & Observations

Time (CDT) Temp. Windchill Dew Point Humidity Pressure Visibility Wind Dir Wind Speed Gust Speed Precip Events Conditions
12:53 AM 45.0 °F 43.5 °F 36.0 °F 71% 30.36 in 10.0 mi ENE 3.5 mph - N/A   Clear
1:53 AM 42.1 °F - 35.1 °F 76% 30.36 in 10.0 mi Calm Calm - N/A   Clear
2:53 AM 39.0 °F - 34.0 °F 82% 30.36 in 10.0 mi Calm Calm - N/A   Clear
3:53 AM 39.0 °F 36.8 °F 35.1 °F 86% 30.37 in 10.0 mi NW 3.5 mph - N/A   Clear
4:53 AM 37.9 °F 34.4 °F 34.0 °F 86% 30.38 in 10.0 mi NW 4.6 mph - N/A   Clear
5:53 AM 37.9 °F 35.5 °F 35.1 °F 89% 30.40 in 10.0 mi North 3.5 mph - N/A   Clear
6:53 AM 36.0 °F - 33.1 °F 89% 30.42 in 10.0 mi Calm Calm - N/A   Clear
7:53 AM 41.0 °F - 37.0 °F 86% 30.43 in 10.0 mi Calm Calm - N/A   Clear
8:53 AM 48.0 °F - 41.0 °F 77% 30.43 in 10.0 mi WNW 4.6 mph - N/A   Clear
9:53 AM 55.0 °F - 39.9 °F 57% 30.44 in 10.0 mi NNW 5.8 mph - N/A   Clear
10:53 AM 61.0 °F - 39.0 °F 44% 30.43 in 10.0 mi NNW 9.2 mph - N/A   Clear
11:53 AM 63.0 °F - 34.0 °F 34% 30.41 in 10.0 mi North 5.8 mph - N/A   Clear
12:53 PM 66.0 °F - 30.9 °F 27% 30.39 in 10.0 mi North 10.4 mph - N/A   Clear
1:53 PM 68.0 °F - 30.0 °F 24% 30.36 in 10.0 mi NW 9.2 mph - N/A   Clear
2:53 PM 69.1 °F - 30.0 °F 23% 30.33 in 10.0 mi Variable 5.8 mph - N/A   Clear
3:53 PM 69.1 °F - 30.0 °F 23% 30.32 in 10.0 mi NW 6.9 mph - N/A   Clear
4:53 PM 68.0 °F - 30.0 °F 24% 30.31 in 10.0 mi NNW 9.2 mph - N/A   Clear
5:53 PM 64.0 °F - 34.0 °F 33% 30.30 in 10.0 mi NW 6.9 mph - N/A   Clear
6:53 PM 57.0 °F - 34.0 °F 42% 30.30 in 10.0 mi WNW 4.6 mph - N/A   Clear
7:53 PM 54.0 °F - 35.1 °F 49% 30.31 in 10.0 mi West 5.8 mph - N/A   Clear
8:53 PM 51.1 °F - 35.1 °F 54% 30.31 in 10.0 mi North - - N/A   Clear
9:53 PM 46.9 °F - 36.0 °F 66% 30.30 in 10.0 mi WNW 4.6 mph - N/A   Clear
10:53 PM 46.0 °F 42.5 °F 36.0 °F 68% 30.29 in 10.0 mi WNW 6.9 mph - N/A   Clear
11:53 PM 46.9 °F - 36.0 °F 66% 30.29 in 10.0 mi Calm Calm - N/A   Clear